Buffalo, SD

7:59 AM MDT on March 23, 2017 (GMT -0600)
Buffalo

Weather History for K2WX - October, 2013

Change the Weather History Date:

Monday, October 7, 2013

  Actual Average Record
Temperature  
Mean Temperature 53 °F 49 °F  
Max Temperature 66 °F 61 °F 87 °F (1997)
Min Temperature 40 °F 36 °F 15 °F (2000)
Degree Days  
Heating Degree Days 12 16  
Month to date heating degree days 129 107  
Since 1 July heating degree days 258 398  
Cooling Degree Days 0 0  
Month to date cooling degree days 0 0  
Year to date cooling degree days 587 512  
Growing Degree Days 4 (Base 50)    
Moisture  
Dew Point 37 °F    
Average Humidity 60    
Maximum Humidity 86    
Minimum Humidity 34    
Precipitation  
Precipitation 0.00 in 0.00 in 0.09 in (2007)
Month to date precipitation 0.50 0.04  
Year to date precipitation 12.15 13.26  
Sea Level Pressure  
Sea Level Pressure 29.81 in    
Wind  
Wind Speed 7 mph (South)    
Max Wind Speed 16 mph    
Max Gust Speed 20 mph    
T = Trace of Precipitation, MM = Missing Value Source: NWS Daily Summary

Daily Weather History Graph

Daily Weather History Graph

Search for Another Location

Airport or City:

Trip Planner

Search our weather history database for the weather conditions in past years. The results will help you decide how hot, cold, wet, or windy it might be!

Date:

Astronomy

Oct. 07, 2013 Rise Set
Actual Time 7:00 AM MDT 6:22 PM MDT
Civil Twilight 6:30 AM MDT 6:52 PM MDT
Nautical Twilight 5:56 AM MDT 7:26 PM MDT
Astronomical Twilight 5:21 AM MDT 8:00 PM MDT
Moon 10:02 AM MDT (10/7) 7:59 PM MDT (10/7)
Length of Visible Light 12h 21m
Length of Day
11h 22m
Waxing Crescent, 9% of the Moon is Illuminated
Oct 7
Waxing Crescent
Oct 11
First Quarter
Oct 18
Full
Oct 26
Last Quarter
Nov 3
New

Hourly Weather History & Observations

Time (MDT) Temp. Windchill Dew Point Humidity Pressure Visibility Wind Dir Wind Speed Gust Speed Precip Events Conditions
12:56 AM 43.0 °F 37.7 °F 37.9 °F 82% 29.97 in - WSW 9.2 mph - N/A   Unknown
1:56 AM 44.1 °F 40.1 °F 37.0 °F 76% 29.95 in - West 6.9 mph - N/A   Unknown
2:56 AM 43.0 °F 39.5 °F 37.0 °F 80% 29.94 in - WSW 5.8 mph - N/A   Unknown
3:56 AM 42.1 °F 37.1 °F 35.1 °F 76% 29.93 in - West 8.1 mph - N/A   Unknown
4:56 AM 44.1 °F 40.1 °F 34.0 °F 68% 29.91 in - West 6.9 mph - N/A   Unknown
5:56 AM 43.0 °F 39.5 °F 33.1 °F 68% 29.90 in - WSW 5.8 mph - N/A   Unknown
6:56 AM 44.1 °F 42.5 °F 33.1 °F 65% 29.90 in - SW 3.5 mph - N/A   Unknown
7:56 AM 44.1 °F 42.5 °F 32.0 °F 63% 29.91 in - SW 3.5 mph - N/A   Unknown
8:56 AM 48.9 °F - 36.0 °F 61% 29.90 in - SW 3.5 mph - N/A   Unknown
9:56 AM 55.0 °F - 36.0 °F 49% 29.89 in - Variable 3.5 mph - N/A   Unknown
10:56 AM 57.9 °F - 39.0 °F 49% 29.87 in - SE 5.8 mph - N/A   Unknown
11:56 AM 64.9 °F - 37.9 °F 37% 29.83 in - South 15.0 mph - N/A   Unknown
12:56 PM 66.0 °F - 37.0 °F 34% 29.80 in - South 13.8 mph - N/A   Unknown
1:56 PM 64.0 °F - 39.9 °F 41% 29.77 in - SSE 11.5 mph - N/A   Unknown
2:56 PM 61.0 °F - 39.0 °F 44% 29.76 in - SSE 11.5 mph - N/A   Unknown
3:56 PM 57.0 °F - 37.9 °F 49% 29.74 in - South 10.4 mph - N/A   Unknown
4:56 PM 55.0 °F - 37.9 °F 53% 29.73 in - SSE 10.4 mph - N/A   Unknown
5:56 PM 48.0 °F - 39.9 °F 74% 29.73 in - SE 5.8 mph - N/A   Unknown
6:56 PM 46.0 °F 41.9 °F 39.0 °F 76% 29.73 in - SSE 8.1 mph - N/A   Unknown
7:56 PM 43.0 °F 40.3 °F 37.0 °F 80% 29.71 in - SE 4.6 mph - N/A   Unknown
8:56 PM 42.1 °F 40.2 °F 37.0 °F 82% 29.69 in - SSE 3.5 mph - N/A   Unknown
9:56 PM 41.0 °F 37.1 °F 37.0 °F 86% 29.65 in - SSE 5.8 mph - N/A   Unknown
10:56 PM 43.0 °F 41.3 °F 37.9 °F 82% 29.61 in - South 3.5 mph - N/A   Unknown
11:56 PM 43.0 °F 39.5 °F 37.9 °F 82% 29.59 in - SSE 5.8 mph - N/A   Unknown